When you browse on this site, cookies collect data to enhance your experience and personalize the content and advertising you see.
Visit our Privacy Policy to learn more. By continuing to use the site, you agree to this use of cookies and data.
  • In Spain
  • List of Countries
  • For 7 days
  • Water Temperature
  • Satellite Maps
  • Weather Map
  • Weather Widgets
  • user-avatar
    Login

    Hourly Weather Caipan

    Today, 19 December, Wednesday

    Time Temperature Precipitation Wind Pressure Humidity
    00:00 +18°C° 0 mm 2 mps 666 mmHg 75%
    01:00 +18°C° 0 mm 2 mps 666 mmHg 77%
    02:00 +18°C° 0 mm 2 mps 666 mmHg 79%
    03:00 +18°C° 0 mm 2 mps 666 mmHg 80%
    04:00 +17°C° 0 mm 2 mps 666 mmHg 81%
    05:00 +17°C° 0 mm 2 mps 665 mmHg 81%
    06:00 +17°C° 0 mm 2 mps 665 mmHg 82%
    07:00 +18°C° 0 mm 2 mps 666 mmHg 76%
    08:00 +20°C° 0 mm 2 mps 666 mmHg 70%
    09:00 +21°C° 0 mm 2 mps 667 mmHg 64%
    10:00 +24°C° 0 mm 2 mps 667 mmHg 56%
    11:00 +25°C° 0 mm 3 mps 667 mmHg 48%
    12:00 +27°C° 0 mm 3 mps 667 mmHg 40%
    13:00 +27°C° 0 mm 3 mps 666 mmHg 40%
    14:00 +27°C° 0 mm 3 mps 665 mmHg 40%
    15:00 +28°C° 0 mm 4 mps 665 mmHg 39%
    16:00 +26°C° 0 mm 3 mps 664 mmHg 45%
    17:00 +24°C° 0 mm 3 mps 664 mmHg 51%
    18:00 +21°C° 0 mm 2 mps 664 mmHg 57%
    19:00 +20°C° 0 mm 2 mps 664 mmHg 59%
    20:00 +20°C° 0 mm 2 mps 665 mmHg 60%
    21:00 +19°C° 0 mm 2 mps 665 mmHg 62%
    22:00 +18°C° 0 mm 2 mps 666 mmHg 64%
    23:00 +19°C° 0 mm 1 mps 666 mmHg 65%

    Tomorrow, 20 December, Thursday

    Time Temperature Precipitation Wind Pressure Humidity
    00:00 +19°C° 0 mm 1 mps 666 mmHg 67%
    01:00 +18°C° 0 mm 1 mps 666 mmHg 69%
    02:00 +18°C° 0 mm 1 mps 666 mmHg 71%
    03:00 +16°C° 0 mm 1 mps 666 mmHg 73%
    04:00 +16°C° 0 mm 1 mps 666 mmHg 74%
    05:00 +16°C° 0 mm 1 mps 666 mmHg 75%
    06:00 +15°C° 0 mm 1 mps 666 mmHg 77%
    07:00 +18°C° 0 mm 1 mps 667 mmHg 71%
    08:00 +20°C° 0 mm 1 mps 668 mmHg 66%
    09:00 +19°C° 0 mm 0 mps 669 mmHg 61%
    10:00 +23°C° 0 mm 1 mps 669 mmHg 57%
    11:00 +24°C° 0 mm 2 mps 669 mmHg 53%
    12:00 +25°C° 0 mm 2 mps 669 mmHg 49%
    13:00 +25°C° 0.1 mm 2 mps 669 mmHg 53%
    14:00 +24°C° 0.1 mm 3 mps 668 mmHg 57%
    15:00 +24°C° 0.1 mm 3 mps 668 mmHg 60%
    16:00 +22°C° 0.2 mm 3 mps 668 mmHg 68%
    17:00 +20°C° 0.2 mm 3 mps 668 mmHg 76%
    18:00 +19°C° 0.2 mm 2 mps 668 mmHg 83%
    19:00 +18°C° 0.2 mm 2 mps 668 mmHg 86%
    20:00 +17°C° 0.2 mm 2 mps 669 mmHg 88%
    21:00 +17°C° 0.2 mm 2 mps 669 mmHg 91%
    22:00 +16°C° 0 mm 2 mps 669 mmHg 92%
    23:00 +16°C° 0 mm 2 mps 669 mmHg 92%

    Day after tomorrow, 21 December, Friday

    Time Temperature Precipitation Wind Pressure Humidity
    00:00 +16°C° 0 mm 2 mps 670 mmHg 93%
    01:00 +15°C° 0.1 mm 2 mps 669 mmHg 92%
    02:00 +15°C° 0.1 mm 2 mps 669 mmHg 91%
    03:00 +15°C° 0.1 mm 2 mps 669 mmHg 91%
    04:00 +14°C° 0 mm 2 mps 669 mmHg 91%
    05:00 +14°C° 0 mm 2 mps 669 mmHg 92%
    06:00 +13°C° 0 mm 2 mps 669 mmHg 92%
    07:00 +14°C° 0 mm 2 mps 670 mmHg 88%
    08:00 +14°C° 0 mm 2 mps 670 mmHg 85%
    09:00 +15°C° 0 mm 2 mps 671 mmHg 81%
    10:00 +16°C° 0 mm 2 mps 671 mmHg 75%
    11:00 +17°C° 0 mm 2 mps 671 mmHg 69%
    12:00 +19°C° 0 mm 3 mps 671 mmHg 63%
    13:00 +19°C° 0 mm 3 mps 670 mmHg 61%
    14:00 +20°C° 0 mm 3 mps 669 mmHg 59%
    15:00 +20°C° 0 mm 3 mps 669 mmHg 57%
    16:00 +19°C° 0 mm 2 mps 668 mmHg 65%
    17:00 +17°C° 0 mm 2 mps 668 mmHg 72%
    18:00 +16°C° 0 mm 2 mps 668 mmHg 79%
    19:00 +15°C° 0 mm 2 mps 669 mmHg 83%
    20:00 +15°C° 0 mm 2 mps 669 mmHg 86%
    21:00 +14°C° 0 mm 1 mps 670 mmHg 89%
    22:00 +14°C° 0 mm 1 mps 670 mmHg 90%
    23:00 +14°C° 0 mm 1 mps 669 mmHg 90%

    22 December, Saturday

    Time Temperature Precipitation Wind Pressure Humidity
    00:00 +13°C° 0 mm 1 mps 669 mmHg 90%
    01:00 +13°C° 0 mm 1 mps 669 mmHg 89%
    02:00 +13°C° 0 mm 1 mps 668 mmHg 88%
    03:00 +13°C° 0 mm 1 mps 668 mmHg 86%
    04:00 +13°C° 0 mm 1 mps 668 mmHg 84%
    05:00 +12°C° 0 mm 1 mps 668 mmHg 82%
    06:00 +12°C° 0 mm 1 mps 668 mmHg 80%
    07:00 +14°C° 0 mm 1 mps 669 mmHg 72%
    08:00 +16°C° 0 mm 1 mps 670 mmHg 64%
    09:00 +20°C° 0 mm 1 mps 671 mmHg 56%
    10:00 +21°C° 0 mm 1 mps 670 mmHg 51%
    11:00 +23°C° 0 mm 1 mps 670 mmHg 46%
    12:00 +25°C° 0 mm 2 mps 670 mmHg 40%
    13:00 +25°C° 0 mm 2 mps 670 mmHg 41%
    14:00 +25°C° 0 mm 2 mps 669 mmHg 42%
    15:00 +25°C° 0 mm 2 mps 668 mmHg 43%
    16:00 +23°C° 0 mm 2 mps 668 mmHg 54%
    17:00 +21°C° 0 mm 2 mps 668 mmHg 64%
    18:00 +19°C° 0 mm 2 mps 668 mmHg 74%
    19:00 +19°C° 0 mm 1 mps 668 mmHg 80%
    20:00 +18°C° 0 mm 1 mps 669 mmHg 85%
    21:00 +16°C° 0 mm 1 mps 669 mmHg 91%
    22:00 +15°C° 0 mm 1 mps 669 mmHg 91%
    23:00 +15°C° 0 mm 1 mps 669 mmHg 92%

    23 December, Sunday

    Time Temperature Precipitation Wind Pressure Humidity
    00:00 +14°C° 0 mm 1 mps 669 mmHg 93%
    01:00 +14°C° 0 mm 1 mps 668 mmHg 92%
    02:00 +13°C° 0 mm 1 mps 668 mmHg 90%
    03:00 +13°C° 0 mm 1 mps 668 mmHg 88%
    04:00 +12°C° 0 mm 1 mps 668 mmHg 85%
    05:00 +12°C° 0 mm 1 mps 668 mmHg 82%
    06:00 +12°C° 0 mm 1 mps 668 mmHg 78%
    07:00 +14°C° 0 mm 1 mps 669 mmHg 69%
    08:00 +16°C° 0 mm 1 mps 670 mmHg 59%
    09:00 +20°C° 0 mm 1 mps 671 mmHg 50%
    10:00 +21°C° 0 mm 1 mps 671 mmHg 43%
    11:00 +23°C° 0 mm 2 mps 670 mmHg 36%
    12:00 +25°C° 0 mm 2 mps 670 mmHg 29%
    13:00 +25°C° 0 mm 2 mps 670 mmHg 30%
    14:00 +25°C° 0 mm 2 mps 669 mmHg 31%
    15:00 +25°C° 0 mm 2 mps 668 mmHg 33%
    16:00 +23°C° 0 mm 2 mps 668 mmHg 44%
    17:00 +20°C° 0 mm 2 mps 668 mmHg 54%
    18:00 +17°C° 0 mm 2 mps 667 mmHg 65%
    19:00 +16°C° 0 mm 2 mps 668 mmHg 71%
    20:00 +15°C° 0 mm 2 mps 668 mmHg 77%
    21:00 +14°C° 0 mm 1 mps 669 mmHg 84%
    22:00 +14°C° 0 mm 1 mps 669 mmHg 84%
    23:00 +13°C° 0 mm 1 mps 669 mmHg 84%

    24 December, Monday

    Time Temperature Precipitation Wind Pressure Humidity
    00:00 +13°C° 0 mm 1 mps 668 mmHg 84%
    01:00 +13°C° 0 mm 1 mps 668 mmHg 83%
    02:00 +12°C° 0 mm 1 mps 668 mmHg 82%
    03:00 +12°C° 0 mm 2 mps 668 mmHg 81%
    04:00 +12°C° 0 mm 2 mps 668 mmHg 80%
    05:00 +10°C° 0 mm 2 mps 668 mmHg 79%
    06:00 +10°C° 0 mm 2 mps 668 mmHg 78%
    07:00 +13°C° 0 mm 2 mps 669 mmHg 69%
    08:00 +15°C° 0 mm 2 mps 670 mmHg 60%
    09:00 +17°C° 0 mm 2 mps 671 mmHg 50%
    10:00 +19°C° 0 mm 2 mps 670 mmHg 48%
    11:00 +20°C° 0 mm 2 mps 670 mmHg 45%
    12:00 +22°C° 0 mm 3 mps 670 mmHg 43%
    13:00 +22°C° 0 mm 3 mps 669 mmHg 45%
    14:00 +24°C° 0 mm 3 mps 669 mmHg 47%
    15:00 +24°C° 0 mm 3 mps 668 mmHg 50%
    16:00 +21°C° 0 mm 3 mps 668 mmHg 60%
    17:00 +19°C° 0 mm 2 mps 668 mmHg 70%
    18:00 +17°C° 0 mm 2 mps 668 mmHg 80%
    19:00 +17°C° 0 mm 2 mps 668 mmHg 83%
    20:00 +16°C° 0 mm 1 mps 668 mmHg 87%
    21:00 +15°C° 0 mm 1 mps 669 mmHg 90%
    22:00 +15°C° 0 mm 1 mps 669 mmHg 90%
    23:00 +15°C° 0 mm 1 mps 668 mmHg 89%
    Show more